GW1213 Weather Reports


Display with metric or nautical units.
time (UTC)temp
F
wind
direction
speed
MPH
gust
MPH
rain 1hr
in
rain 24hr
in
rain mn
in
humidity
%
barometer
mb
20260901143108 88 0 0.0 0.0 0.00 0.00 0.00 71 1016.6
20260901142536 87 0 0.0 0.0 0.00 0.00 0.00 71 1016.5
20260901142035 87 0 0.0 0.0 0.00 0.00 0.00 73 1016.5
20260901141607 86 0 0.0 0.0 0.00 0.00 0.00 75 1016.5
20260901141035 85 0 0.0 0.0 0.00 0.00 0.00 76 1016.4
20260901140535 85 0 0.0 0.0 0.00 0.00 0.00 77 1016.4
20260901140058 84 0 0.0 0.0 0.00 0.00 0.00 78 1016.4
20260901135535 84 0 0.0 2.0 0.00 0.00 0.00 78 1016.5
20260901135035 83 0 0.0 3.0 0.00 0.00 0.00 81 1016.6
20260901134556 82 0 0.0 3.0 0.00 0.00 0.00 81 1016.6
20260901134035 81 0 0.0 0.0 0.00 0.00 0.00 85 1016.6
20260901133543 81 0 0.0 0.0 0.00 0.00 0.00 86 1016.8
20260901133106 80 0 0.0 0.0 0.00 0.00 0.00 86 1016.8
20260901132537 80 0 0.0 0.0 0.00 0.00 0.00 86 1016.9
20260901132036 79 0 0.0 0.0 0.00 0.00 0.00 88 1017.0
20260901131558 79 0 0.0 0.0 0.00 0.00 0.00 88 1017.0
20260901131038 79 0 0.0 0.0 0.00 0.00 0.00 90 1017.0
20260901130535 79 0 0.0 0.0 0.00 0.00 0.00 90 1016.9
20260901125535 78 0 0.0 0.0 0.00 0.00 0.00 90 1017.0
20260901125038 78 0 0.0 0.0 0.00 0.00 0.00 90 1016.9
20260901124605 78 0 0.0 0.0 0.00 0.00 0.00 90 1017.0
20260901124035 78 0 0.0 0.0 0.00 0.00 0.00 91 1017.1
20260901123536 78 0 0.0 0.0 0.00 0.00 0.00 91 1017.0
20260901123101 77 0 0.0 0.0 0.00 0.00 0.00 92 1016.9
20260901122536 77 0 0.0 0.0 0.00 0.00 0.00 93 1016.8
20260901122037 77 0 0.0 0.0 0.00 0.00 0.00 94 1016.8
20260901121606 76 0 0.0 0.0 0.00 0.00 0.00 94 1016.9
20260901121037 76 0 0.0 0.0 0.00 0.00 0.00 93 1016.9
20260901120539 76 0 0.0 0.0 0.00 0.00 0.00 93 1016.8
20260901120110 76 0 0.0 0.0 0.00 0.00 0.00 94 1016.7
20260901115535 75 0 0.0 0.0 0.00 0.00 0.00 95 1016.7
20260901115036 75 0 0.0 0.0 0.00 0.00 0.00 95 1016.7
20260901114603 74 0 0.0 0.0 0.00 0.00 0.00 96 1016.7
20260901114035 74 0 0.0 0.0 0.00 0.00 0.00 97 1016.7
20260901113535 74 0 0.0 0.0 0.00 0.00 0.00 97 1016.7
20260901113052 74 0 0.0 0.0 0.00 0.00 0.00 97 1016.6
20260901112539 73 0 0.0 0.0 0.00 0.00 0.00 97 1016.6
20260901112036 73 0 0.0 0.0 0.00 0.00 0.00 97 1016.6
20260901111607 73 0 0.0 0.0 0.00 0.00 0.00 97 1016.5
20260901111036 73 0 0.0 0.0 0.00 0.00 0.00 97 1016.5
20260901110535 73 0 0.0 0.0 0.00 0.00 0.00 97 1016.5
20260901110058 73 0 0.0 0.0 0.00 0.00 0.00 97 1016.4
20260901105536 73 0 0.0 0.0 0.00 0.00 0.00 97 1016.4
20260901105036 73 0 0.0 0.0 0.00 0.00 0.00 96 1016.3
20260901104602 73 0 0.0 0.0 0.00 0.00 0.00 96 1016.4
20260901104038 73 0 0.0 0.0 0.00 0.00 0.00 96 1016.3
20260901103536 73 0 0.0 0.0 0.00 0.00 0.00 96 1016.4
20260901103059 73 0 0.0 0.0 0.00 0.00 0.00 96 1016.4
20260901102535 73 0 0.0 0.0 0.00 0.00 0.00 96 1016.4
20260901102039 73 0 0.0 0.0 0.00 0.00 0.00 96 1016.3
20260901101609 73 0 0.0 0.0 0.00 0.00 0.00 96 1016.4
20260901101036 73 0 0.0 0.0 0.00 0.00 0.00 96 1016.2
20260901100538 73 0 0.0 0.0 0.00 0.00 0.00 96 1016.2
20260901100108 73 0 0.0 0.0 0.00 0.00 0.00 96 1016.2
20260901095535 73 0 0.0 0.0 0.00 0.00 0.00 96 1016.2
20260901095035 73 0 0.0 0.0 0.00 0.00 0.00 96 1016.3
20260901094558 73 0 0.0 0.0 0.00 0.00 0.00 96 1016.2
20260901094035 73 0 0.0 0.0 0.00 0.00 0.00 96 1016.2
20260901093539 73 0 0.0 0.0 0.00 0.00 0.00 96 1016.2
20260901093102 73 0 0.0 0.0 0.00 0.00 0.00 96 1016.2
20260901092535 73 0 0.0 0.0 0.00 0.00 0.00 96 1016.3
20260901092036 73 0 0.0 0.0 0.00 0.00 0.00 96 1016.3
20260901091606 73 0 0.0 0.0 0.00 0.00 0.00 96 1016.2
20260901091035 73 0 0.0 0.0 0.00 0.00 0.00 96 1016.2
20260901090535 73 0 0.0 0.0 0.00 0.00 0.00 96 1016.3
20260901085535 73 0 0.0 0.0 0.00 0.00 0.00 96 1016.2
20260901085040 73 0 0.0 0.0 0.00 0.00 0.00 96 1016.2
20260901084622 73 0 0.0 0.0 0.00 0.00 0.00 96 1016.2
20260901084037 73 0 0.0 0.0 0.00 0.00 0.00 96 1016.2
20260901083541 74 0 0.0 0.0 0.00 0.00 0.00 96 1016.2
20260901083100 74 0 0.0 0.0 0.00 0.00 0.00 96 1016.3
20260901082537 74 0 0.0 0.0 0.00 0.00 0.00 96 1016.2
20260901082038 74 0 0.0 0.0 0.00 0.00 0.00 96 1016.2
20260901081600 74 0 0.0 0.0 0.00 0.00 0.00 96 1016.2
20260901081037 74 0 0.0 0.0 0.00 0.00 0.00 96 1016.2
20260901080536 74 0 0.0 0.0 0.00 0.00 0.00 96 1016.3
20260901080113 74 0 0.0 0.0 0.00 0.00 0.00 96 1016.3
20260901075536 74 0 0.0 0.0 0.00 0.00 0.00 96 1016.3
20260901075036 74 0 0.0 0.0 0.00 0.00 0.00 96 1016.4
20260901074621 74 0 0.0 0.0 0.00 0.00 0.00 96 1016.5
20260901074041 74 0 0.0 0.0 0.00 0.00 0.00 96 1016.6
20260901073536 74 0 0.0 0.0 0.00 0.00 0.00 95 1016.6
20260901073100 74 0 0.0 0.0 0.00 0.00 0.00 95 1016.7
20260901072538 74 0 0.0 0.0 0.00 0.00 0.00 95 1016.6
20260901072041 74 0 0.0 0.0 0.00 0.00 0.00 95 1016.5
20260901071607 74 0 0.0 0.0 0.00 0.00 0.00 95 1016.5
20260901071037 74 0 0.0 0.0 0.00 0.00 0.00 95 1016.5
20260901070538 74 0 0.0 0.0 0.00 0.00 0.00 95 1016.6
20260901065535 75 0 0.0 0.0 0.00 0.00 0.00 95 1016.7
20260901065037 75 0 0.0 0.0 0.00 0.00 0.00 95 1016.7
20260901064603 75 0 0.0 0.0 0.00 0.00 0.00 95 1016.7
20260901064035 75 0 0.0 0.0 0.00 0.00 0.00 95 1016.7
20260901063535 75 0 0.0 0.0 0.00 0.00 0.00 95 1016.8
20260901063105 75 0 0.0 0.0 0.00 0.00 0.00 95 1016.8
20260901062536 75 0 0.0 0.0 0.00 0.00 0.00 95 1016.8
20260901062038 75 0 0.0 0.0 0.00 0.00 0.00 95 1016.9
20260901061559 75 0 0.0 0.0 0.00 0.00 0.00 95 1017.1
20260901061036 75 0 0.0 0.0 0.00 0.00 0.00 95 1017.1
20260901060536 75 0 0.0 0.0 0.00 0.00 0.00 95 1017.1
20260901060101 75 0 0.0 0.0 0.00 0.00 0.00 95 1017.1
20260901055535 75 0 0.0 0.0 0.00 0.00 0.00 95 1017.2
20260901055036 75 0 0.0 0.0 0.00 0.00 0.00 95 1017.2
20260901054557 75 0 0.0 0.0 0.00 0.00 0.00 95 1017.3
20260901054036 75 0 0.0 0.0 0.00 0.00 0.00 95 1017.3
20260901053538 75 0 0.0 0.0 0.00 0.00 0.00 95 1017.3
20260901053107 75 0 0.0 0.0 0.00 0.00 0.00 95 1017.3
20260901052537 75 0 0.0 0.0 0.00 0.00 0.00 95 1017.3
20260901052037 75 0 0.0 0.0 0.00 0.00 0.00 95 1017.4
20260901051606 75 0 0.0 0.0 0.00 0.00 0.00 95 1017.4
20260901051038 75 0 0.0 0.0 0.00 0.00 0.00 95 1017.5
20260901050542 75 0 0.0 0.0 0.00 0.00 0.00 94 1017.5
20260901050100 75 0 0.0 0.0 0.00 0.00 0.00 94 1017.5
20260901045536 75 0 0.0 0.0 0.00 0.00 0.00 94 1017.6
20260901045037 75 0 0.0 0.0 0.00 0.00 0.00 94 1017.7
20260901044607 75 0 0.0 0.0 0.00 0.00 0.00 94 1017.7
20260901044037 75 0 0.0 0.0 0.00 0.00 0.00 94 1017.7
20260901043536 75 0 0.0 0.0 0.00 0.00 0.00 94 1017.8
20260901043109 75 0 0.0 0.0 0.00 0.00 0.00 94 1017.7
20260901042538 75 0 0.0 0.0 0.00 0.00 0.00 94 1017.7
20260901042037 75 0 0.0 0.0 0.00 0.00 0.00 94 1017.7
20260901041619 75 0 0.0 0.0 0.00 0.00 0.00 94 1017.8
20260901041040 75 0 0.0 0.0 0.00 0.00 0.00 93 1017.7
20260901040538 75 0 0.0 0.0 0.00 0.00 0.00 93 1017.7
20260901040136 75 0 0.0 0.0 0.00 0.00 0.00 93 1017.7
20260901035538 76 0 0.0 0.0 0.00 0.00 0.00 93 1017.7
20260901035040 76 0 0.0 0.0 0.00 0.00 0.00 93 1017.8
20260901034552 76 0 0.0 0.0 0.00 0.00 0.00 93 1017.7
20260901034038 76 0 0.0 0.0 0.00 0.00 0.00 93 1017.7
20260901033538 76 0 0.0 0.0 0.00 0.00 0.00 93 1017.7
20260901033101 76 0 0.0 0.0 0.00 0.00 0.00 93 1017.7
20260901032536 76 0 0.0 0.0 0.00 0.00 0.00 92 1017.6
20260901032040 76 0 0.0 0.0 0.00 0.00 0.00 92 1017.6
20260901031602 76 0 0.0 0.0 0.00 0.00 0.00 92 1017.5
20260901031038 76 0 0.0 0.0 0.00 0.00 0.00 92 1017.5
20260901030537 77 0 0.0 0.0 0.00 0.00 0.00 92 1017.6
20260901030110 77 0 0.0 0.0 0.00 0.00 0.00 91 1017.5
20260901025538 77 0 0.0 0.0 0.00 0.00 0.00 91 1017.6
20260901025037 77 0 0.0 0.0 0.00 0.00 0.00 91 1017.6
20260901024607 77 0 0.0 0.0 0.00 0.00 0.00 91 1017.5
20260901024039 77 0 0.0 0.0 0.00 0.00 0.00 91 1017.5
20260901023536 78 0 0.0 0.0 0.00 0.00 0.00 90 1017.4
20260901023105 78 0 0.0 0.0 0.00 0.00 0.00 90 1017.5
20260901022535 78 0 0.0 0.0 0.00 0.00 0.00 90 1017.5
20260901022038 78 0 0.0 0.0 0.00 0.00 0.00 90 1017.5
20260901021600 78 0 0.0 0.0 0.00 0.00 0.00 89 1017.5
20260901021038 78 0 0.0 0.0 0.00 0.00 0.00 88 1017.6
20260901020536 78 0 0.0 0.0 0.00 0.00 0.00 88 1017.5
20260901020057 79 0 0.0 0.0 0.00 0.00 0.00 87 1017.5
20260901015535 79 0 0.0 0.0 0.00 0.00 0.00 88 1017.5
20260901015036 79 0 0.0 0.0 0.00 0.00 0.00 88 1017.6
20260901014606 79 0 0.0 0.0 0.00 0.00 0.00 88 1017.5
20260901014036 79 0 0.0 0.0 0.00 0.00 0.00 87 1017.6
20260901013536 79 0 0.0 0.0 0.00 0.00 0.00 87 1017.4
20260901013102 79 0 0.0 0.0 0.00 0.00 0.00 86 1017.5
20260901012536 79 0 0.0 0.0 0.00 0.00 0.00 86 1017.2
20260901012035 80 0 0.0 0.0 0.00 0.00 0.00 86 1017.3
20260901011558 80 0 0.0 0.0 0.00 0.00 0.00 86 1017.2
20260901011037 80 0 0.0 0.0 0.00 0.00 0.00 85 1017.2
20260901010535 80 0 0.0 0.0 0.00 0.00 0.00 85 1017.2
20260901010116 80 0 0.0 0.0 0.00 0.00 0.00 85 1017.3
20260901005535 80 0 0.0 0.0 0.00 0.00 0.00 86 1017.2
20260901005038 80 0 0.0 0.0 0.00 0.00 0.00 84 1017.1
20260901004603 80 0 0.0 0.0 0.00 0.00 0.00 84 1017.1
20260901004037 80 0 0.0 0.0 0.00 0.00 0.00 85 1017.1
20260901003539 80 0 0.0 0.0 0.00 0.00 0.00 84 1017.1
20260901003059 80 0 0.0 0.0 0.00 0.00 0.00 84 1017.0
20260901002538 81 0 0.0 0.0 0.00 0.00 0.00 84 1017.0
20260901002038 81 0 0.0 0.0 0.00 0.00 0.00 85 1017.1
20260901001559 81 0 0.0 0.0 0.00 0.00 0.00 84 1017.0
20260901001041 81 0 0.0 0.0 0.00 0.00 0.00 83 1017.0
20260901000537 81 0 0.0 0.0 0.00 0.00 0.00 82 1017.0
20260901000058 81 0 0.0 0.0 0.00 0.00 0.00 84 1017.0
20260831235537 81 0 0.0 0.0 0.00 0.00 0.00 83 1016.8
20260831235038 82 0 0.0 0.0 0.00 0.00 0.00 83 1017.0
20260831234604 82 0 0.0 0.0 0.00 0.00 0.00 84 1016.9
20260831234038 82 0 0.0 0.0 0.00 0.00 0.00 83 1017.0
20260831233539 82 0 0.0 0.0 0.00 0.00 0.00 82 1017.1
20260831233116 82 0 0.0 0.0 0.00 0.00 0.00 81 1017.1
20260831232535 83 0 0.0 0.0 0.00 0.00 0.00 81 1017.1
20260831232037 83 0 0.0 0.0 0.00 0.00 0.00 82 1017.2
20260831231559 83 0 0.0 0.0 0.00 0.00 0.00 82 1017.2
20260831231040 83 0 0.0 0.0 0.00 0.00 0.00 80 1017.2
20260831230537 83 0 0.0 0.0 0.00 0.00 0.00 79 1017.3
20260831230114 83 0 0.0 0.0 0.00 0.00 0.00 80 1017.4
20260831225535 83 0 0.0 0.0 0.00 0.00 0.00 79 1017.3
20260831225040 83 0 0.0 0.0 0.00 0.00 0.00 77 1017.3
20260831224602 83 0 0.0 0.0 0.00 0.00 0.00 78 1017.4
20260831224040 83 0 0.0 0.0 0.00 0.00 0.00 77 1017.4
20260831223540 84 0 0.0 0.0 0.00 0.00 0.00 79 1017.4
20260831223109 84 0 0.0 0.0 0.00 0.00 0.00 81 1017.4
20260831222536 84 0 0.0 0.0 0.00 0.00 0.00 80 1017.3
20260831222038 85 0 0.0 0.0 0.00 0.00 0.00 79 1017.4
20260831221601 85 0 0.0 0.0 0.00 0.00 0.00 77 1017.4
20260831221037 85 0 0.0 0.0 0.00 0.00 0.00 74 1017.4
20260831220536 85 0 0.0 0.0 0.00 0.00 0.00 75 1017.5
20260831220053 85 0 0.0 0.0 0.00 0.00 0.00 75 1017.6
20260831215538 86 0 0.0 0.0 0.00 0.00 0.00 74 1017.6
20260831215036 86 0 0.0 0.0 0.00 0.00 0.00 73 1017.4
20260831214610 86 0 0.0 0.0 0.00 0.00 0.00 71 1017.3
20260831214037 86 0 0.0 0.0 0.00 0.00 0.00 71 1017.3
20260831213534 86 0 0.0 0.0 0.00 0.00 0.00 72 1017.2
20260831213059 86 0 0.0 0.0 0.00 0.00 0.00 71 1017.3
20260831212538 86 0 0.0 0.0 0.00 0.00 0.00 71 1017.3
20260831212036 86 0 0.0 0.0 0.00 0.00 0.00 71 1017.2
20260831211557 86 0 0.0 0.0 0.00 0.00 0.00 70 1017.2
20260831211037 87 0 0.0 1.0 0.00 0.00 0.00 69 1017.2
20260831210537 87 0 0.0 1.0 0.00 0.00 0.00 70 1017.2
20260831210103 88 0 0.0 2.0 0.00 0.00 0.00 68 1017.2
20260831205536 88 0 0.0 2.0 0.00 0.00 0.00 69 1017.2
20260831205036 88 0 0.0 1.0 0.00 0.00 0.00 69 1017.2
20260831204608 88 0 0.0 0.0 0.00 0.00 0.00 69 1017.2
20260831204039 88 0 0.0 0.0 0.00 0.00 0.00 69 1017.2
20260831203537 88 0 0.0 0.0 0.00 0.00 0.00 69 1017.1
20260831203112 88 0 0.0 0.0 0.00 0.00 0.00 70 1017.2
20260831202534 88 0 0.0 1.0 0.00 0.00 0.00 68 1017.2
20260831202037 87 0 0.0 3.0 0.00 0.00 0.00 68 1017.3
20260831201554 87 0 0.0 3.0 0.00 0.00 0.00 69 1017.3
20260831201037 87 62 0.0 3.0 0.00 0.00 0.00 69 1017.3
20260831200534 87 0 0.0 4.0 0.00 0.00 0.00 70 1017.3
20260831200110 87 85 1.0 4.0 0.00 0.00 0.00 68 1017.3
20260831195535 87 39 1.0 4.0 0.00 0.00 0.00 71 1017.3
20260831195038 86 32 1.0 4.0 0.00 0.00 0.00 72 1017.4
20260831194637 86 28 1.0 3.0 0.00 0.00 0.00 71 1017.3
20260831194037 86 41 0.0 3.0 0.00 0.00 0.00 71 1017.4
20260831193538 86 0 0.0 8.0 0.00 0.00 0.00 70 1017.4
20260831193100 87 59 2.0 8.0 0.00 0.00 0.00 70 1017.5
20260831192538 87 0 0.0 0.0 0.00 0.00 0.00 71 1017.5
20260831192036 86 0 0.0 0.0 0.00 0.00 0.00 70 1017.6
20260831191602 86 0 0.0 0.0 0.00 0.00 0.00 71 1017.6
20260831191040 86 0 0.0 0.0 0.00 0.00 0.00 71 1017.7
20260831190537 86 0 0.0 2.0 0.00 0.00 0.00 72 1017.7
20260831190109 86 0 0.0 3.0 0.00 0.00 0.00 69 1017.7
20260831185535 86 360 1.0 3.0 0.00 0.00 0.00 71 1017.7
20260831185035 86 0 0.0 5.0 0.00 0.00 0.00 70 1017.7
20260831184601 87 38 2.0 7.0 0.00 0.00 0.00 69 1017.6
20260831184035 87 76 3.0 7.0 0.00 0.00 0.00 69 1017.6
20260831183536 87 0 0.0 5.0 0.00 0.00 0.00 67 1017.6
20260831183106 87 48 2.0 5.0 0.00 0.00 0.00 68 1017.6
20260831182536 88 0 1.0 5.0 0.00 0.00 0.00 66 1017.6
20260831182036 88 71 3.0 5.0 0.00 0.00 0.00 63 1017.7
20260831181607 89 0 0.0 4.0 0.00 0.00 0.00 63 1017.8
20260831181037 89 0 1.0 4.0 0.00 0.00 0.00 64 1017.8
20260831180536 89 0 0.0 3.0 0.00 0.00 0.00 66 1017.9
20260831180114 89 0 0.0 4.0 0.00 0.00 0.00 65 1017.9
20260831175537 88 127 1.0 4.0 0.00 0.00 0.00 64 1017.8
20260831175037 88 127 1.0 3.0 0.00 0.00 0.00 65 1018.0
20260831174603 88 0 1.0 3.0 0.00 0.00 0.00 65 1018.0
20260831174036 88 332 0.0 2.0 0.00 0.00 0.00 66 1018.0
20260831173541 88 0 0.0 3.0 0.00 0.00 0.00 68 1018.1
20260831173059 88 0 0.0 5.0 0.00 0.00 0.00 68 1018.1
20260831172536 87 72 0.0 5.0 0.00 0.00 0.00 70 1018.1
20260831172037 87 98 1.0 5.0 0.00 0.00 0.00 70 1018.2
20260831171600 87 38 0.0 3.0 0.00 0.00 0.00 70 1018.3
20260831171036 87 49 0.0 4.0 0.00 0.00 0.00 68 1018.4
20260831170536 87 0 0.0 4.0 0.00 0.00 0.00 69 1018.5
20260831170104 87 72 1.0 4.0 0.00 0.00 0.00 67 1018.5
20260831165537 88 80 1.0 4.0 0.00 0.00 0.00 67 1018.5
20260831165037 88 39 1.0 3.0 0.00 0.00 0.00 69 1018.6
20260831164600 88 40 1.0 3.0 0.00 0.00 0.00 67 1018.7
20260831164035 88 84 0.0 1.0 0.00 0.00 0.00 67 1018.7
20260831163537 88 0 0.0 4.0 0.00 0.00 0.00 66 1018.7
20260831163102 88 0 0.0 5.0 0.00 0.00 0.00 68 1018.8
20260831162537 88 62 0.0 5.0 0.00 0.00 0.00 67 1018.8
20260831162034 87 0 0.0 2.0 0.00 0.00 0.00 68 1018.8
20260831161606 87 0 1.0 3.0 0.00 0.00 0.00 68 1018.7
20260831161037 87 335 1.0 3.0 0.00 0.00 0.00 68 1018.7
20260831160538 86 0 0.0 3.0 0.00 0.00 0.00 70 1018.8
20260831155537 86 287 0.0 2.0 0.00 0.00 0.00 71 1018.7
20260831155035 86 345 1.0 3.0 0.00 0.00 0.00 70 1018.7
20260831154617 86 347 0.0 3.0 0.00 0.00 0.00 70 1018.7
20260831154038 86 0 0.0 3.0 0.00 0.00 0.00 71 1018.9
20260831153540 86 0 0.0 4.0 0.00 0.00 0.00 72 1018.8
20260831153059 85 254 1.0 4.0 0.00 0.00 0.00 73 1018.7
20260831152538 84 0 1.0 3.0 0.00 0.00 0.00 73 1018.8
20260831152034 84 0 0.0 2.0 0.00 0.00 0.00 74 1018.7
20260831151617 84 360 1.0 2.0 0.00 0.00 0.00 73 1018.7
20260831151038 84 0 1.0 2.0 0.00 0.00 0.00 74 1018.6
20260831150540 84 32 1.0 3.0 0.00 0.00 0.00 75 1018.7
20260831150100 84 73 0.0 7.0 0.00 0.00 0.00 74 1018.6
20260831145538 84 38 3.0 7.0 0.00 0.00 0.00 75 1018.5
20260831145037 84 28 1.0 3.0 0.00 0.00 0.00 77 1018.5
20260831144601 83 352 0.0 5.0 0.00 0.00 0.00 75 1018.6
20260831144037 83 0 1.0 5.0 0.00 0.00 0.00 76 1018.6
20260831143536 83 67 1.0 5.0 0.00 0.00 0.00 76 1018.5